Voltar ao catálogo

CZ-6A DEB

AtivoPO
NORAD 61159·DEBRIS·🇨🇳 China

Lançado Aug 6, 2024 de Taiyuan Satellite Launch Center

Loading…

Próximas Passagens (próximas 24 horas)

TLE

AtualizadoSource: Space-Track

Época: Sep 13, 2026, 17:22 UTC

1 61159U 24140RD  26256.72422096  .00001002  00000-0  28090-3 0  9991
2 61159  88.9588 257.8313 0056085   6.6936 353.5004 14.44398903108580

Acompanhe CZ-6A DEB em tempo real com AllMySat

Download on the App Store